Charlottesville, VA

11:01 AM EDT on March 24, 2017 (GMT -0400)
Charlottesville-Albemarle

Weather History for KCHO - October, 2014

Change the Weather History Date:

Saturday, October 25, 2014

  Actual Average Record
Temperature  
Mean Temperature 56 °F 53 °F  
Max Temperature 72 °F 65 °F 85 °F (1921)
Min Temperature 39 °F 42 °F 31 °F (2003)
Degree Days  
Heating Degree Days 9 12  
Month to date heating degree days 151 214  
Since 1 July heating degree days 174 272  
Cooling Degree Days 0 0  
Month to date cooling degree days 14 12  
Year to date cooling degree days 1094 1033  
Growing Degree Days 7 (Base 50)    
Moisture  
Dew Point 39 °F    
Average Humidity 55    
Maximum Humidity 83    
Minimum Humidity 27    
Precipitation  
Precipitation 0.00 in 0.09 in 1.53 in (2008)
Month to date precipitation 3.72 2.55  
Year to date precipitation 33.08 35.17  
Sea Level Pressure  
Sea Level Pressure 29.89 in    
Wind  
Wind Speed 6 mph (SW)    
Max Wind Speed 15 mph    
Max Gust Speed 19 mph    
Visibility 10 miles    
Events      
T = Trace of Precipitation, MM = Missing Value Source: NWS Daily Summary

Daily Weather History Graph

Daily Weather History Graph

Search for Another Location

Airport or City:

Trip Planner

Search our weather history database for the weather conditions in past years. The results will help you decide how hot, cold, wet, or windy it might be!

Date:

Astronomy

Oct. 25, 2014 Rise Set
Actual Time 7:32 AM EDT 6:22 PM EDT
Civil Twilight 7:05 AM EDT 6:49 PM EDT
Nautical Twilight 6:34 AM EDT 7:20 PM EDT
Astronomical Twilight 6:03 AM EDT 7:51 PM EDT
Moon 9:08 AM EDT (10/25) 7:45 PM EDT (10/25)
Length of Visible Light 11h 44m
Length of Day
10h 50m
Waxing Crescent, 3% of the Moon is Illuminated
Oct 25
Waxing Crescent
Oct 30
First Quarter
Nov 6
Full
Nov 14
Last Quarter
Nov 22
New

Hourly Weather History & Observations

Time (EDT) Temp. Windchill Dew Point Humidity Pressure Visibility Wind Dir Wind Speed Gust Speed Precip Events Conditions
12:53 AM 44.1 °F 41.5 °F 39.9 °F 85% 29.96 in 10.0 mi NW 4.6 mph - N/A   Clear
1:53 AM 43.0 °F 40.3 °F 37.9 °F 82% 29.96 in 10.0 mi SSE 4.6 mph - N/A   Clear
2:53 AM 46.9 °F - 36.0 °F 66% 29.96 in 10.0 mi SW 3.5 mph - N/A   Clear
3:53 AM 42.1 °F - 36.0 °F 79% 29.97 in 10.0 mi Calm Calm - N/A   Clear
4:53 AM 48.0 °F - 33.1 °F 56% 29.96 in 10.0 mi WSW 5.8 mph - N/A   Clear
5:53 AM 45.0 °F 42.6 °F 34.0 °F 65% 29.97 in 10.0 mi WSW 4.6 mph - N/A   Clear
6:53 AM 42.1 °F 40.2 °F 35.1 °F 76% 29.98 in 10.0 mi SW 3.5 mph - N/A   Clear
7:53 AM 46.9 °F - 33.1 °F 59% 29.97 in 10.0 mi West 5.8 mph - N/A   Clear
8:53 AM 50.0 °F - 35.1 °F 57% 29.99 in 10.0 mi WSW 3.5 mph - N/A   Clear
9:53 AM 55.9 °F - 37.9 °F 51% 29.99 in 10.0 mi SW 5.8 mph - N/A   Clear
10:53 AM 62.1 °F - 37.0 °F 39% 29.98 in 10.0 mi SW 5.8 mph - N/A   Clear
11:53 AM 66.0 °F - 39.0 °F 37% 29.95 in 10.0 mi SSW 6.9 mph - N/A   Clear
12:53 PM 69.1 °F - 35.1 °F 29% 29.91 in 10.0 mi South 10.4 mph - N/A   Clear
1:53 PM 71.1 °F - 36.0 °F 28% 29.87 in 10.0 mi SSW 8.1 mph - N/A   Clear
2:53 PM 70.0 °F - 39.9 °F 33% 29.84 in 10.0 mi SW 8.1 mph - N/A   Scattered Clouds
3:53 PM 71.1 °F - 41.0 °F 34% 29.82 in 10.0 mi SSW 12.7 mph - N/A   Clear
4:53 PM 72.0 °F - 39.9 °F 31% 29.80 in 10.0 mi SW 6.9 mph - N/A   Clear
5:53 PM 66.9 °F - 43.0 °F 42% 29.78 in 10.0 mi SSW 5.8 mph - N/A   Clear
6:53 PM 66.0 °F - 42.1 °F 42% 29.78 in 10.0 mi SSW 6.9 mph - N/A   Clear
7:53 PM 64.9 °F - 42.1 °F 43% 29.78 in 10.0 mi SSW 6.9 mph - N/A   Clear
8:53 PM 66.0 °F - 43.0 °F 43% 29.76 in 10.0 mi SW 6.9 mph - N/A   Clear
9:53 PM 64.9 °F - 45.0 °F 48% 29.76 in 10.0 mi SSW 5.8 mph - N/A   Clear
10:53 PM 64.0 °F - 45.0 °F 50% 29.76 in 10.0 mi Variable 3.5 mph - N/A   Clear
11:53 PM 64.0 °F - 46.0 °F 52% 29.74 in 10.0 mi SW 5.8 mph - N/A   Clear